Mattoon, IL

12:03 PM CDT on June 20, 2019 (GMT -0500)
Coles County Memorial

Weather History for KMTO - May, 2019

Change the Weather History Date:

Saturday, May 25, 2019

  Actual Average Record
Temperature  
Mean Temperature 78 °F 66 °F  
Max Temperature 85 °F 76 °F 90 °F (1953)
Min Temperature 71 °F 56 °F 39 °F (1949)
Degree Days  
Heating Degree Days 0 3  
Month to date heating degree days 130 117  
Since 1 July heating degree days 5517 5379  
Cooling Degree Days 13 3  
Month to date cooling degree days 71 51  
Year to date cooling degree days 76 65  
Growing Degree Days 28 (Base 50)    
Moisture  
Dew Point 65 °F    
Average Humidity 64    
Maximum Humidity 79    
Minimum Humidity 48    
Precipitation  
Precipitation 0.00 in 0.12 in 2.39 in (2011)
Month to date precipitation 2.44 3.70  
Year to date precipitation 11.46 13.68  
Sea Level Pressure  
Sea Level Pressure 29.98 in    
Wind  
Wind Speed 8 mph (SSW)    
Max Wind Speed 17 mph    
Max Gust Speed 27 mph    
Visibility 10 miles    
Events      
T = Trace of Precipitation, MM = Missing Value Source: NWS Daily Summary

Daily Weather History Graph

Daily Weather History Graph

Search for Another Location

Airport or City:

Astronomy

May. 25, 2019 Rise Set
Actual Time 5:31 AM CDT 8:08 PM CDT
Civil Twilight 5:00 AM CDT 8:40 PM CDT
Nautical Twilight 4:21 AM CDT 9:19 PM CDT
Astronomical Twilight 3:37 AM CDT 10:03 PM CDT
Moon 1:09 AM CDT (5/25) 11:30 AM CDT (5/25)
Length of Visible Light 15h 39m
Length of Day
14h 37m
Waning Gibbous, 59% of the Moon is Illuminated
May 25
Waning Gibbous
May 26
Last Quarter
Jun 3
New
Jun 10
First Quarter
Jun 17
Full

Hourly Weather History & Observations

Time (CDT) Temp. Heat Index Dew Point Humidity Pressure Visibility Wind Dir Wind Speed Gust Speed Precip Events Conditions
12:53 AM 75.0 °F - 64.9 °F 71% 29.98 in 10.0 mi SSW 10.4 mph 19.6 mph N/A   Clear
1:53 AM 75.0 °F - 64.9 °F 71% 29.96 in 10.0 mi SSW 9.2 mph - N/A   Clear
2:53 AM 73.9 °F - 64.9 °F 73% 29.94 in 10.0 mi South 9.2 mph - N/A   Clear
3:53 AM 73.0 °F - 64.9 °F 76% 29.95 in 10.0 mi SW 8.1 mph - N/A   Partly Cloudy
4:53 AM 72.0 °F - 64.9 °F 78% 29.95 in 10.0 mi SSW 5.8 mph - N/A   Clear
5:53 AM 71.1 °F - 64.9 °F 81% 29.96 in 10.0 mi South 8.1 mph - N/A   Clear
6:53 AM 73.0 °F - 66.0 °F 79% 29.98 in 10.0 mi South 10.4 mph - N/A   Clear
7:53 AM 73.9 °F - 66.0 °F 76% 29.98 in 10.0 mi South 10.4 mph - N/A   Clear
8:53 AM 75.9 °F - 66.9 °F 74% 29.96 in 10.0 mi South 11.5 mph - N/A   Clear
9:53 AM 79.0 °F - 68.0 °F 69% 29.98 in 10.0 mi SSW 13.8 mph 21.9 mph N/A   Clear
10:53 AM 77.0 °F - 66.0 °F 69% 30.01 in 10.0 mi SW 10.4 mph 21.9 mph N/A   Overcast
11:53 AM 81.0 °F 83.0 °F 66.0 °F 60% 30.01 in 10.0 mi WSW 6.9 mph - N/A   Partly Cloudy
12:53 PM 80.1 °F 81.7 °F 64.0 °F 58% 30.01 in 10.0 mi SW 15.0 mph 25.3 mph N/A   Mostly Cloudy
1:53 PM 82.0 °F 83.4 °F 64.0 °F 54% 30.00 in 10.0 mi WSW 8.1 mph 17.3 mph N/A   Clear
2:53 PM 84.0 °F 84.5 °F 62.1 °F 47% 29.99 in 10.0 mi WSW 9.2 mph 20.7 mph N/A   Clear
3:53 PM 84.9 °F 85.9 °F 63.0 °F 48% 29.99 in 10.0 mi WSW 11.5 mph 19.6 mph N/A   Clear
4:53 PM 84.9 °F 85.4 °F 62.1 °F 46% 29.99 in 10.0 mi SW 10.4 mph 21.9 mph N/A   Clear
5:53 PM 82.9 °F 84.4 °F 64.0 °F 53% 29.99 in 10.0 mi Variable 5.8 mph - N/A   Partly Cloudy
6:53 PM 82.9 °F 84.4 °F 64.0 °F 53% 29.99 in 10.0 mi WSW 8.1 mph - N/A   Clear
7:53 PM 80.1 °F 82.3 °F 66.9 °F 64% 29.98 in 10.0 mi Calm Calm - N/A   Clear
8:53 PM 77.0 °F - 66.9 °F 71% 29.99 in 10.0 mi South 4.6 mph - N/A   Clear
9:53 PM 75.0 °F - 68.0 °F 79% 29.99 in 10.0 mi South 3.5 mph - N/A   Clear
10:53 PM 73.9 °F - 66.9 °F 79% 29.99 in 9.0 mi South 5.8 mph - N/A   Clear
11:53 PM 75.0 °F - 66.9 °F 76% 29.99 in 10.0 mi South 6.9 mph - N/A   Partly Cloudy